Погода в Зосени

Погода в Зосени : погода сейчас, прогноз погоды и архив. Всё, что Вы хотите узнать о погоде в Зосени!

Поиск расширенной информации на нашем сайте:

Другие новости

Новости СМИ2

Главная страница сайта

Новости сайта

03.07.2017

Напоминаем, что на нашем специализированном сайте Метеоцентр.Азия вы можете получить высокодетализированные автоматические прогнозы погоды по пунктам России, СНГ и мира в авиационном формате (включающие направление и скорость ветра, видимость, явления погоды, количество и форму облачности, нижнюю и верхнюю границу облачности).


Погода в Зосени - сегодня

Время (UTC), дата Ветер
(°,м/с) 
Видим.   Явления Облачность Т
(°С)
Тd
(°С)
f(%) Тe
(°С)
Pmin
(гПа)
dP
(гПа)
Po
(мм)
O2
(г/м3)
Тmin Tmax R s Состояние
почвы
15 06.02.18 190 (Ю) н/о    н/о 
-8.1 -9.4 90 -11  1012.7  742  308           
18 06.02.18 180 (Ю) н/о  слаб. ливневой снег  10/0 кучево-дожд. 
[Cb cap]
-8.1 -9 93 -11  1013.2  0.4  742  308    -7.5  0.4     
21 06.02.18 200 (Ю) н/о    н/о 
-7.4 -8.3 93 -9  1013.2  0.1  743  308           
00 07.02.18 230 (ЮЗ) н/о    н/о 
-5.5 -6.2 95 -9  1014  742  306           
06 07.02.18 230 (ЮЗ) 20000 м    10/0 кучево-дожд. 
[Cb calv]
-4.8 -6.2 90 -8  1016.2  1.4  745  305  -8.1    0.8  15  неравномерный
сухой снег
100% 
09 07.02.18 230 (ЮЗ) н/о    н/о 
-4.1 -5.1 93 -7  1017.9  1.7  746  305           
12 07.02.18 230 (ЮЗ) 5{10}  н/о    н/о 
-4.2 -5.1 93 -8  1019  1.1  746  306           
15 07.02.18 230 (ЮЗ) 6-10{12}  н/о    н/о 
-4 -5.8 87 -8  1020.5  1.4  748  306           
18 07.02.18 220 (ЮЗ) 3{12}  н/о    8/0 кучево-дожд. 
[Cb calv]
-5.4 -7.9 83 -8  1021.9  1.3  749  308    -3.6  0.7     
21 07.02.18 220 (ЮЗ) н/о    н/о 
-7.6 -10.5 80 -9  1023.2  750  311           
00 08.02.18 220 (ЮЗ) н/о    н/о 
-9.6 -12 83 -9  1023.4  0.1  749  314           
03 08.02.18 180 (Ю) н/о    н/о 
-11.9 -12.9 92 -14  1023.7  750  316           
06 08.02.18 150 (ЮВ) 20000 м    10/0 кучево-дожд. 
[Cb calv]
-10.6 -11.4 94 -12  1023.4  -0.1  750  315  -13.2      16  неравномерный
сухой снег
100% 
09 08.02.18 170 (Ю) н/о    н/о 
-8.5 -9.2 95 -10  1023.2  750  312           
12 08.02.18 130 (ЮВ) н/о    н/о 
-7.6 -8.6 93 -9  1022.5  -0.6  749  311           
15 08.02.18 тихо ()   н/о    н/о 
-7.3 -8 95 -7  1022.2  -0.3  749  310           
18 08.02.18 130 (ЮВ) н/о    10/0 кучево-дожд. 
[Cb calv]
-7.7 -8.2 96 -7  1022.4  0.2  749  311    -6.9       
21 08.02.18 тихо ()   н/о    н/о 
-7.5 -8 96 -8  1022.1  -0.3  749  310           
00 09.02.18 020 (С) н/о    н/о 
-7.4 -7.9 96 -7  1022.4  0.3  748  311           
06 09.02.18 тихо ()   0500 м  туман  ?/?  
-8.8 -9.4 95 -9  1022.6  0.2  749  312  -8.9      16  неравномерный
сухой снег
100% 
09 09.02.18 360 (С) н/о    н/о 
-9.3 -10 95 -9  1023.3  0.6  750  313           
12 09.02.18 090 (В) н/о    н/о 
-9.3 -10 95 -9  1023.3  749  313           
15 09.02.18 080 (В) н/о    н/о 
-9.7 -10.4 95 -10  1023  -0.3  750  314           
18 09.02.18 070 (В) н/о    10/0 
[St]
-10.3 -11.1 94 -12  1023.5  0.4  750  314    -8.8       
09 22.02.18 тихо ()   н/о    н/о 
-13.7 -15.3 88 -14  1032.7  0.4  756  321           
Время (UTC), дата Ветер
(°,м/с) 
Видим.   Явления Облачность Т
(°С)
Тd
(°С)
f(%) Тe
(°С)
Pmin
(гПа)
dP
(гПа)
Po
(мм)
O2
(г/м3)
Тmin Tmax R s Состояние
почвы

Для получения пояснительной информации подведите курсор к названию столбца.

ПОГОДА в Зосени - архив

Всё, что Вы хотите узнать о погоде в Зосени - удобно и подробно!

Выберите нужную дату (начиная с 1 января 2015* года) и нажмите кнопку "Найти".
Будут отображены архивные сводки погоды по пункту Зосени, начиная с указанной даты.


Отображать данные в формате CSV (для использования в таблицах Excel)


Внимание! Наш архив погоды предназначен исключительно для личного некоммерческого использования в познавательных целях. Если Вам необходимы официальные справки о состоянии погоды (для производственных, юридических, коммерческих и т.п. целей), обращайтесь в органы Росгидромета.

*Примечание: данная дата относится к архиву по метеостанциям СССР (Россия, СНГ, Балтия).
Архив по метеостанциям Зарубежной Европы и Азии (кроме Китая) хранится 10 дней, по другим регионам земного шара (Китай, Африка, Америка, Австралия, Океания) - 1 день.

Зосени - район местоположения метеостанции


Название, широта, долгота, высота метеостанции:
Зосени 57.1°ш. 25.9°д. 180 м над ур. моря [Латвия]

Дополнительная информация

В oтличие oт бoльшинства пoгoдных сайтoв мы публикуем пoдрoбную метеoинфoрмацию в детальнoм прoфессиoнальнoм фoрмате.

Характеристики температуры и влажнoсти вoздуха измеряются на высoте 2 м в тени вдали oт зданий и деревьев.
Скoрoсть ветра измеряется на высoте 10 м (на урoвне рoста челoвека скoрoсть ветра ниже в 1.5-2 раза). Если метеoстанция нахoдится в гoрoде или в лесу, тo скoрoсть ветра занижена на 2-4 м/с пo сравнению с oткрытым местoм. Скoрoсть ветра над акватoриями крупных рек и oзёр, а также на вершинах хoлмoв на 2-5 м/с выше, чем в oбычных услoвиях.
Атмoсфернoе давление в разных тoчках местнoсти мoжет значительнo oтличаться oт давления на метеoстанции, в зависимoсти oт услoвий рельефа (при пoдъёме на 10 м давление пoнижается примернo на 1 мм рт.ст.).